COSMOS 249 DEB *, 6176

Orbit data source: Space-Track

COSMOS 249 DEB *, 6176 is space debris in LEO originally from a launch on Sun, 20 Oct 1968 UTC launched from the Tyuratam Missile And Space Complex (TTMTR). Debris objects in space refer to the collection of defunct objects orbiting the Earth. Examples of debris include non-operational satellites, rocket bodies, and fragments generated from explosions, collisions, or faulty payload assembly.

Loading next visibility...
Identifier
6176, 1968-091CG
Orbit
LEO
Country
Flag of CISCIS
Related business
Manufacturer
Unknown
Mission
Spacecraft
Bus & Motor
Unknown
Mass
Unknown
Launch date (UTC)
1968-10-20 (58 years ago)
Launch vehicle
Unknown
Launch site
Tyuratam Missile And Space Complex (TTMTR)
Object type
Payload
Rocket body
Debris
Shape & HBR
Unknown shape, 0.1 m
Radar Cross Section
Small (<0.1 m²)

Expand to show TLE details & history
Last TLE update: 2 days ago

TLE from 2 days ago
0 COSMOS 249 DEB *
1 06176U 68091CG  26124.97979696  .00000526  00000-0  10361-2 0  9997
2 06176  65.7280 323.9542 0461082  58.2218 306.2869 13.08522423153536
Epoch: 2026-05-04T23:30Z
TLE epoch observation values (Epoch: 2026-05-04T23:30:54.457Z)
Latitude
-0.00003°
Longitude
108.36606°
Altitude
1,034.133 km
Speed
7.429 km/s
True Right ascension
21h 35m 49s
True Declination
0° 00' 00"
Sunlit
Object was in daylight at epoch
Visualization orbit readout
Latitude
Unknown
Longitude
Unknown
Altitude
Unknown
Speed
Unknown
Apparent Right ascension
Unknown
Apparent Declination
Unknown
Sunlit
N/A
Visualization observer readout
Local Sidereal Time
06:03:57
Azimuth
Unknown
Elevation
Unknown
Doppler factor
Unknown
Orbital elements
Apogee altitude
1,578.133 km
Perigee altitude
876.773 km
Semi-major axis
7,605.59 km
Eccentricity
0.04611
Inclination
65.728°
RAAN
323.9542°
Arg. of periapsis
58.2218°
True anomaly
301.88215°
Mean anomaly
306.2869°
Eccentric anomaly
304.09931°
Mean motion
3.27223 °/min
Orbital period
110.02 mins
BSTAR
0.0010361
Loading maneuver chart data...
Computing Atmospheric mass density...
Loading historical data...
Loading historical data...
Loading historical data...
Loading historical data...
Loading historical data...
Loading historical data...
Loading historical data...

Documentation

Showing up to 5 results
|